Terminal Aerodrome Forecast
Issued by NWS Raleigh/Durham, NC

Home | Current Version | Previous Version | Text Only | Print | Product List | Glossary On
Versions: 1 2 3 4 5 6 7 8 9 10 11 12 13 14 15 16 17 18 19 20 21 22 23 24 25
000
FTUS42 KRAH 271252 AAA
TAFGSO
TAF AMD
KGSO 271252Z 2713/2812 19008KT P6SM SCT030 OVC070
      TEMPO 2713/2714 BKN020
     FM272000 23010G16KT P6SM BKN035
     FM280000 20005KT P6SM OVC250
     FM280600 20006KT 4SM -RA BR OVC007=

USA.gov is the U.S. government's official web portal to all federal, state and local government web resources and services.